Weather History for KBVN - February, 2012

Change the Weather History Date:

Friday, February 10, 2012

  Actual Average (KOFK) Record (KOFK)
Temperature  
Mean Temperature 18 °F 25 °F  
Max Temperature 29 °F 36 °F 70 °F (1951)
Min Temperature 5 °F 15 °F -23 °F (1905)
Degree Days  
Heating Degree Days 48 40  
Month to date heating degree days 406  
Since 1 July heating degree days 4428  
Cooling Degree Days 0 0  
Month to date cooling degree days 0  
Year to date cooling degree days 0  
Moisture  
Dew Point 4 °F    
Average Humidity 59    
Maximum Humidity 75    
Minimum Humidity 47    
Precipitation  
Precipitation 0.00 in 0.03 in 0.50 in (1944)
Month to date precipitation 0.25  
Year to date precipitation 0.84  
Snow  
Snow 0.00 in 0.20 in - ()
Month to date snowfall 2.2  
Since 1 July snowfall 19.5  
Snow Depth -    
Sea Level Pressure  
Sea Level Pressure 30.30 in    
Wind  
Wind Speed 16 mph (North)    
Max Wind Speed 24 mph    
Max Gust Speed 32 mph    
Visibility 10 miles    
Events Snow    
T = Trace of Precipitation, MM = Missing Value Source: NWS Daily Summary

Daily Weather History Graph

Daily Weather History Graph

Search for Another Location

Airport or City:

Trip Planner

Search our weather history database for the weather conditions in past years. The results will help you decide how hot, cold, wet, or windy it might be!

Date:

Astronomy

Feb. 10, 2012 Rise Set
Actual Time 7:34 AM CST 5:58 PM CST
Civil Twilight 7:05 AM CST 6:27 PM CST
Nautical Twilight 6:33 AM CST 7:00 PM CST
Astronomical Twilight 6:00 AM CST 7:32 PM CST
Moon 9:42 PM CST (2/10) 8:40 AM CST (2/10)
Length of Visible Light 11h 21m
Length of Day
10h 23m
Waning Gibbous, 90% of the Moon is Illuminated
Feb 10
Waning Gibbous
Feb 14
Last Quarter
Feb 21
New
Feb 29
First Quarter
Mar 8
Full

Hourly Weather History & Observations

Time (CST) Temp. Windchill Dew Point Humidity Pressure Visibility Wind Dir Wind Speed Gust Speed Precip Events Conditions
12:15 AM 29.7 °F 19.6 °F 21.6 °F 72% 30.12 in 10.0 mi NNW 12.7 mph - N/A   Overcast
12:35 AM 29.7 °F 19.6 °F 21.6 °F 72% 30.11 in 10.0 mi NNW 12.7 mph 18.4 mph N/A   Overcast
12:55 AM 29.3 °F 17.7 °F 21.2 °F 72% 30.11 in 10.0 mi NNW 16.1 mph 20.7 mph N/A   Overcast
1:15 AM 28.9 °F 16.9 °F 20.1 °F 70% 30.12 in 10.0 mi NNW 17.3 mph 24.2 mph N/A   Overcast
1:35 AM 28.2 °F 16.3 °F 20.7 °F 73% 30.13 in 10.0 mi North 16.1 mph 26.5 mph N/A   Overcast
1:55 AM 27.0 °F 13.2 °F 19.8 °F 74% 30.13 in 10.0 mi North 20.7 mph 26.5 mph N/A   Overcast
2:15 AM 25.7 °F 12.7 °F 18.5 °F 74% 30.14 in 7.0 mi North 17.3 mph 24.2 mph N/A Snow Light Snow
2:35 AM 25.3 °F 13.6 °F 17.6 °F 72% 30.15 in 10.0 mi North 13.8 mph 18.4 mph N/A   Overcast
2:55 AM 24.1 °F 9.4 °F 16.3 °F 72% 30.15 in 10.0 mi North 20.7 mph 26.5 mph N/A Snow Light Snow
3:15 AM 23.0 °F 8.0 °F 15.4 °F 73% 30.16 in 10.0 mi North 20.7 mph 28.8 mph N/A Snow Light Snow
3:35 AM 21.7 °F 7.1 °F 14.9 °F 75% 30.16 in 7.0 mi North 18.4 mph 27.6 mph N/A Snow Light Snow
3:55 AM 21.2 °F 6.0 °F 13.6 °F 73% 30.18 in 10.0 mi North 19.6 mph 27.6 mph N/A Snow Light Snow
4:15 AM 20.5 °F 5.0 °F 12.7 °F 72% 30.19 in 10.0 mi North 19.6 mph 25.3 mph N/A Snow Light Snow
4:35 AM 17.6 °F 2.2 °F 5.2 °F 58% 30.20 in 10.0 mi North 17.3 mph 23.0 mph N/A   Scattered Clouds
4:55 AM 16.0 °F 1.7 °F 4.5 °F 60% 30.20 in 10.0 mi North 13.8 mph 21.9 mph N/A   Clear
5:15 AM 15.1 °F -1.1 °F 3.6 °F 60% 30.22 in 10.0 mi North 17.3 mph 23.0 mph N/A   Clear
5:35 AM 14.4 °F -1.0 °F 2.8 °F 60% 30.22 in 10.0 mi North 15.0 mph 21.9 mph N/A   Clear
5:55 AM 13.8 °F -0.5 °F 3.0 °F 62% 30.23 in 10.0 mi North 12.7 mph 21.9 mph N/A   Clear
6:15 AM 13.6 °F -1.3 °F 2.7 °F 62% 30.24 in 10.0 mi NNW 13.8 mph 23.0 mph N/A   Clear
6:35 AM 13.1 °F -3.7 °F 2.3 °F 62% 30.24 in 10.0 mi NNW 17.3 mph 24.2 mph N/A   Clear
6:55 AM 12.9 °F -3.4 °F 2.1 °F 62% 30.25 in 10.0 mi North 16.1 mph 21.9 mph N/A   Clear
7:15 AM 12.4 °F -3.5 °F 2.1 °F 64% 30.25 in 10.0 mi NNW 15.0 mph 25.3 mph N/A   Clear
7:35 AM 12.2 °F -3.1 °F 1.4 °F 62% 30.27 in 10.0 mi NNW 13.8 mph 20.7 mph N/A   Clear
7:55 AM 12.0 °F -4.0 °F 0.7 °F 60% 30.27 in 10.0 mi NNW 15.0 mph 25.3 mph N/A   Clear
8:15 AM 12.2 °F -3.1 °F 1.2 °F 61% 30.29 in 10.0 mi North 13.8 mph 23.0 mph N/A   Clear
8:35 AM 12.0 °F -5.6 °F -0.0 °F 59% 30.29 in 10.0 mi North 18.4 mph 24.2 mph N/A   Clear
8:55 AM 12.2 °F -4.8 °F -0.8 °F 56% 30.30 in 10.0 mi North 17.3 mph 24.2 mph N/A   Clear
9:15 AM 12.4 °F -4.1 °F -0.6 °F 56% 30.31 in 10.0 mi NNW 16.1 mph 24.2 mph N/A   Clear
9:35 AM 13.1 °F -4.2 °F -0.2 °F 55% 30.31 in 10.0 mi North 18.4 mph 27.6 mph N/A   Clear
9:55 AM 13.5 °F -5.8 °F -1.3 °F 52% 30.32 in 10.0 mi North 24.2 mph 27.6 mph N/A   Clear
10:15 AM 13.8 °F -1.7 °F -0.2 °F 54% 30.33 in 10.0 mi NNW 15.0 mph 31.1 mph N/A   Clear
10:35 AM 14.5 °F -3.2 °F 1.2 °F 56% 30.34 in 10.0 mi NNW 20.7 mph 27.6 mph N/A   Clear
10:55 AM 14.7 °F -3.8 °F 1.0 °F 55% 30.34 in 10.0 mi North 23.0 mph 32.2 mph N/A   Clear
11:15 AM 14.9 °F -1.8 °F 1.2 °F 55% 30.35 in 10.0 mi North 18.4 mph 24.2 mph N/A   Clear
11:35 AM 15.1 °F -2.0 °F 0.5 °F 53% 30.36 in 10.0 mi NNW 19.6 mph 25.3 mph N/A   Clear
11:55 AM 15.8 °F -1.5 °F 0.1 °F 50% 30.37 in 10.0 mi North 20.7 mph 26.5 mph N/A   Clear
12:15 PM 16.7 °F 0.1 °F 1.8 °F 52% 30.37 in 10.0 mi NNW 19.6 mph 27.6 mph N/A   Clear
12:35 PM 16.9 °F 0.8 °F 0.9 °F 50% 30.36 in 10.0 mi NNW 18.4 mph 26.5 mph N/A   Clear
12:55 PM 17.4 °F 1.0 °F 1.6 °F 50% 30.35 in 10.0 mi North 19.6 mph 25.3 mph N/A   Clear
1:15 PM 17.2 °F 0.4 °F 2.1 °F 52% 30.35 in 10.0 mi North 20.7 mph 27.6 mph N/A   Clear
1:35 PM 17.2 °F 1.2 °F 2.1 °F 52% 30.35 in 10.0 mi NNW 18.4 mph 25.3 mph N/A   Clear
1:55 PM 18.0 °F 1.7 °F 3.0 °F 52% 30.36 in 10.0 mi North 19.6 mph 28.8 mph N/A   Clear
2:15 PM 18.0 °F 1.7 °F 2.5 °F 51% 30.36 in 10.0 mi North 19.6 mph 31.1 mph N/A   Clear
2:35 PM 17.6 °F 0.5 °F 2.1 °F 51% 30.36 in 10.0 mi North 21.9 mph 27.6 mph N/A   Clear
2:55 PM 18.0 °F 2.2 °F 1.9 °F 50% 30.37 in 10.0 mi NNW 18.4 mph 26.5 mph N/A   Clear
3:15 PM 17.6 °F 2.7 °F 1.2 °F 49% 30.38 in 10.0 mi North 16.1 mph 27.6 mph N/A   Clear
3:35 PM 17.4 °F 0.2 °F -0.0 °F 46% 30.38 in 10.0 mi NNW 21.9 mph 31.1 mph N/A   Clear
3:55 PM 16.7 °F -1.1 °F 1.0 °F 50% 30.39 in 10.0 mi North 23.0 mph 28.8 mph N/A   Clear
4:15 PM 16.2 °F -0.2 °F -0.0 °F 49% 30.39 in 10.0 mi North 18.4 mph 29.9 mph N/A   Clear
4:35 PM 15.3 °F -2.2 °F -2.0 °F 47% 30.40 in 10.0 mi North 20.7 mph 29.9 mph N/A   Clear
4:55 PM 14.9 °F -1.3 °F -1.1 °F 49% 30.40 in 10.0 mi North 17.3 mph 26.5 mph N/A   Clear
5:15 PM 13.8 °F -3.2 °F -1.7 °F 50% 30.41 in 10.0 mi North 18.4 mph 25.3 mph N/A   Clear
5:35 PM 12.9 °F -3.9 °F -2.4 °F 51% 30.42 in 10.0 mi North 17.3 mph 26.5 mph N/A   Clear
5:55 PM 11.8 °F -3.6 °F -1.7 °F 55% 30.44 in 10.0 mi North 13.8 mph 20.7 mph N/A   Clear
6:15 PM 10.4 °F -3.3 °F -2.2 °F 57% 30.45 in 10.0 mi North 10.4 mph 16.1 mph N/A   Clear
6:35 PM 9.5 °F -5.2 °F -2.7 °F 58% 30.46 in 10.0 mi North 11.5 mph 20.7 mph N/A   Clear
6:55 PM 8.6 °F -7.0 °F -3.1 °F 59% 30.47 in 10.0 mi North 12.7 mph - N/A   Clear
7:15 PM 7.9 °F -8.0 °F -4.0 °F 58% 30.49 in 10.0 mi North 12.7 mph 21.9 mph N/A   Clear
7:35 PM 7.3 °F -8.6 °F -3.8 °F 60% 30.50 in 10.0 mi North 12.7 mph - N/A   Scattered Clouds
7:55 PM 6.8 °F -8.6 °F -4.0 °F 61% 30.51 in 10.0 mi North 11.5 mph - N/A   Clear
8:15 PM 6.3 °F -7.5 °F -4.0 °F 63% 30.52 in 10.0 mi NNW 9.2 mph - N/A   Clear
8:35 PM 5.9 °F -5.8 °F -4.2 °F 63% 30.53 in 10.0 mi NNW 6.9 mph - N/A   Clear
8:55 PM 5.9 °F -9.7 °F -4.9 °F 61% 30.53 in 10.0 mi NNW 11.5 mph 16.1 mph N/A   Clear
9:15 PM 5.4 °F -9.6 °F -5.1 °F 62% 30.55 in 10.0 mi NNW 10.4 mph - N/A   Clear
9:35 PM 5.2 °F -8.9 °F -5.1 °F 63% 30.55 in 10.0 mi North 9.2 mph - N/A   Clear
9:55 PM 5.0 °F -9.1 °F -5.3 °F 63% 30.56 in 10.0 mi North 9.2 mph - N/A   Clear
10:15 PM 4.6 °F -11.3 °F -5.8 °F 62% 30.56 in 10.0 mi North 11.5 mph - N/A   Clear
10:55 PM 3.9 °F -10.4 °F -5.8 °F 64% 30.56 in 10.0 mi North 9.2 mph - N/A   Clear
11:15 PM 3.7 °F -12.4 °F -6.2 °F 64% 30.56 in 10.0 mi North 11.5 mph 16.1 mph N/A   Clear
11:35 PM 3.6 °F -11.8 °F -6.5 °F 63% 30.57 in 10.0 mi North 10.4 mph 17.3 mph N/A   Clear
11:55 PM 3.2 °F -11.3 °F -6.7 °F 63% 30.58 in 10.0 mi North 9.2 mph - N/A   Clear